GW1885 Weather Reports


Display with metric or nautical units.
time (UTC)temp
F
wind
direction
speed
MPH
gust
MPH
rain 1hr
in
rain 24hr
in
rain mn
in
humidity
%
barometer
mb
20260503203505 58 128 1.0 2.0 0.00 0.00 0.00 74 1010.3
20260503203004 59 128 0.0 2.0 0.00 0.00 0.00 74 1010.2
20260503202504 59 128 0.0 1.0 0.00 0.00 0.00 71 1010.4
20260503202005 59 130 1.0 4.0 0.00 0.00 0.00 72 1010.3
20260503201504 59 133 2.0 8.0 0.00 0.00 0.00 72 1010.6
20260503201046 58 143 2.0 8.0 0.00 0.00 0.00 74 1010.5
20260503200504 58 206 0.0 6.0 0.00 0.00 0.00 77 1010.4
20260503200004 58 231 1.0 6.0 0.00 0.00 0.00 75 1010.5
20260503195504 58 248 1.0 6.0 0.00 0.00 0.00 77 1010.3
20260503195004 59 276 1.0 2.0 0.00 0.00 0.00 74 1010.1
20260503194504 60 290 2.0 8.0 0.00 0.00 0.00 71 1010.9
20260503194005 60 305 2.0 8.0 0.00 0.00 0.00 64 1011.5
20260503193504 60 322 1.0 6.0 0.00 0.00 0.00 63 1011.6
20260503193004 59 333 0.0 2.0 0.00 0.00 0.00 68 1011.9
20260503192525 59 334 0.0 1.0 0.00 0.00 0.00 66 1010.8
20260503192026 59 0 0.0 0.0 0.00 0.00 0.00 65 1010.3
20260503191525 59 334 0.0 1.0 0.00 0.00 0.00 63 1010.4
20260503191004 60 0 0.0 0.0 0.00 0.00 0.00 62 1010.5
20260503190505 60 0 0.0 0.0 0.00 0.00 0.00 62 1010.5
20260503190004 60 0 0.0 0.0 0.00 0.00 0.00 59 1010.4
20260503185504 61 334 0.0 1.0 0.00 0.00 0.00 59 1010.5
20260503185004 61 334 0.0 1.0 0.00 0.00 0.00 58 1010.4
20260503184504 61 334 0.0 1.0 0.00 0.00 0.00 57 1010.4
20260503184025 61 334 0.0 1.0 0.00 0.00 0.00 57 1010.4
20260503183504 61 334 0.0 1.0 0.00 0.00 0.00 60 1010.4
20260503183004 62 0 0.0 0.0 0.00 0.00 0.00 59 1010.3
20260503182504 62 334 0.0 1.0 0.00 0.00 0.00 57 1010.3
20260503182006 63 334 0.0 1.0 0.00 0.00 0.00 56 1010.2
20260503181505 63 334 0.0 1.0 0.00 0.00 0.00 56 1010.0
20260503181005 63 334 0.0 1.0 0.00 0.00 0.00 56 1010.3
20260503180505 64 334 0.0 1.0 0.00 0.00 0.00 55 1010.2
20260503180004 64 0 0.0 0.0 0.00 0.00 0.00 54 1010.1
20260503175525 65 334 0.0 1.0 0.00 0.00 0.00 54 1010.1
20260503175004 65 334 0.0 1.0 0.00 0.00 0.00 52 1010.1
20260503174525 65 334 0.0 1.0 0.00 0.00 0.00 53 1010.0
20260503174025 66 334 0.0 1.0 0.00 0.00 0.00 51 1010.1
20260503173504 67 334 0.0 1.0 0.00 0.00 0.00 50 1010.1
20260503173004 67 334 0.0 1.0 0.00 0.00 0.00 50 1010.2
20260503172505 68 334 0.0 1.0 0.00 0.00 0.00 49 1010.1
20260503172005 69 335 0.0 1.0 0.00 0.00 0.00 49 1010.1
20260503171525 69 335 0.0 1.0 0.00 0.00 0.00 49 1010.2
20260503171004 69 335 0.0 1.0 0.00 0.00 0.00 47 1010.0
20260503170505 70 335 0.0 1.0 0.00 0.00 0.00 48 1010.1
20260503151005 75 309 1.0 4.0 0.00 0.00 0.00 38 1010.1
20260503150505 75 301 1.0 4.0 0.00 0.00 0.00 39 1010.3
20260503131003 81 282 4.0 11.0 0.00 0.00 0.00 29 1010.7
20260503130505 83 282 2.0 7.0 0.00 0.00 0.00 29 1010.5
20260503110503 83 165 4.0 13.0 0.00 0.00 0.00 28 1011.3
20260503090504 81 177 4.0 10.0 0.00 0.00 0.00 28 1012.3
20260503081505 76 176 6.0 11.0 0.00 0.00 0.00 34 1012.7
20260503081005 76 177 5.0 11.0 0.00 0.00 0.00 31 1012.6
20260503080526 76 175 5.0 13.0 0.00 0.00 0.00 34 1012.6
20260503072504 73 168 5.0 8.0 0.00 0.00 0.00 35 1012.8
20260503072004 72 171 5.0 8.0 0.00 0.00 0.00 39 1013.0
20260503071505 72 176 4.0 8.0 0.00 0.00 0.00 37 1013.2
20260503071004 72 176 3.0 8.0 0.00 0.00 0.00 38 1013.0
20260503070505 71 173 3.0 8.0 0.00 0.00 0.00 39 1013.1
20260503055005 64 165 5.0 9.0 0.00 0.00 0.00 46 1013.1
20260503054504 63 162 5.0 9.0 0.00 0.00 0.00 47 1013.1
20260503054005 62 163 5.0 9.0 0.00 0.00 0.00 49 1013.2
20260503053505 61 162 5.0 8.0 0.00 0.00 0.00 50 1013.1
20260503053004 61 161 5.0 8.0 0.00 0.00 0.00 51 1013.2
20260503052505 61 164 5.0 8.0 0.00 0.00 0.00 50 1013.1
20260503052026 60 164 5.0 9.0 0.00 0.00 0.00 50 1013.2
20260503051504 60 164 5.0 9.0 0.00 0.00 0.00 52 1013.3
20260503051005 60 165 5.0 8.0 0.00 0.00 0.00 51 1013.3
20260503050504 60 163 5.0 10.0 0.00 0.00 0.00 51 1013.2
20260503050006 59 164 5.0 10.0 0.00 0.00 0.00 52 1013.3
20260503045505 59 165 5.0 8.0 0.00 0.00 0.00 52 1013.2
20260503045005 58 164 5.0 9.0 0.00 0.00 0.00 53 1013.1
20260503044505 58 164 5.0 9.0 0.00 0.00 0.00 55 1013.2
20260503044026 57 162 5.0 8.0 0.00 0.00 0.00 55 1013.3
20260503043505 57 161 5.0 8.0 0.00 0.00 0.00 56 1013.3
20260503043005 56 164 4.0 7.0 0.00 0.00 0.00 56 1013.2
20260503042526 56 165 4.0 7.0 0.00 0.00 0.00 57 1013.3
20260503042004 56 165 4.0 6.0 0.00 0.00 0.00 58 1013.3
20260503041525 56 169 4.0 6.0 0.00 0.00 0.00 58 1013.3
20260503041004 56 173 4.0 6.0 0.00 0.00 0.00 58 1013.3
20260503040504 55 175 4.0 6.0 0.00 0.00 0.00 58 1013.3
20260503040004 55 174 3.0 4.0 0.00 0.00 0.00 59 1013.4
20260503035505 54 176 3.0 4.0 0.00 0.00 0.00 60 1013.3
20260503035004 54 179 3.0 6.0 0.00 0.00 0.00 60 1013.2
20260503034504 54 180 3.0 6.0 0.00 0.00 0.00 60 1013.4
20260503034004 54 181 2.0 4.0 0.00 0.00 0.00 61 1013.4
20260503033505 54 180 3.0 4.0 0.00 0.00 0.00 62 1013.5
20260503033004 53 179 3.0 4.0 0.00 0.00 0.00 61 1013.3
20260503032504 54 181 3.0 4.0 0.00 0.00 0.00 61 1013.5
20260503032005 53 183 3.0 4.0 0.00 0.00 0.00 61 1013.5
20260503031504 53 183 3.0 4.0 0.00 0.00 0.00 62 1013.5
20260503031004 54 181 3.0 6.0 0.00 0.00 0.00 61 1013.3
20260503030504 54 180 4.0 6.0 0.00 0.00 0.00 60 1013.4
20260503030005 54 178 3.0 6.0 0.00 0.00 0.00 60 1013.5
20260503025504 54 177 2.0 4.0 0.00 0.00 0.00 59 1013.4
20260503025004 55 175 3.0 7.0 0.00 0.00 0.00 59 1013.5
20260503024505 55 175 4.0 7.0 0.00 0.00 0.00 59 1013.5
20260503024005 55 172 4.0 6.0 0.00 0.00 0.00 58 1013.3
20260503023505 55 166 4.0 6.0 0.00 0.00 0.00 58 1013.5
20260503023026 55 165 4.0 6.0 0.00 0.00 0.00 58 1013.6
20260503022504 55 163 4.0 7.0 0.00 0.00 0.00 58 1013.5
20260503022004 55 162 4.0 7.0 0.00 0.00 0.00 59 1013.6
20260503021504 55 163 4.0 7.0 0.00 0.00 0.00 59 1013.7
20260503021005 55 162 4.0 7.0 0.00 0.00 0.00 59 1013.7
20260503020504 54 161 4.0 7.0 0.00 0.00 0.00 59 1013.7
20260503020005 54 163 4.0 7.0 0.00 0.00 0.00 59 1013.7
20260503015504 54 165 4.0 7.0 0.00 0.00 0.00 59 1013.7
20260503015025 55 167 4.0 7.0 0.00 0.00 0.00 59 1013.9
20260503014504 55 173 4.0 7.0 0.00 0.00 0.00 58 1013.7
20260503014005 55 178 4.0 7.0 0.00 0.00 0.00 58 1013.8
20260503013504 55 179 4.0 7.0 0.00 0.00 0.00 59 1013.8
20260503013004 55 176 4.0 7.0 0.00 0.00 0.00 59 1013.8
20260503012526 55 171 4.0 7.0 0.00 0.00 0.00 59 1013.8
20260503012005 54 174 4.0 7.0 0.00 0.00 0.00 60 1014.0
20260503011504 55 177 4.0 6.0 0.00 0.00 0.00 61 1014.0
20260503011005 55 172 4.0 6.0 0.00 0.00 0.00 61 1013.9
20260503010504 55 167 4.0 6.0 0.00 0.00 0.00 60 1014.0
20260503010004 54 165 4.0 6.0 0.00 0.00 0.00 61 1013.9
20260503005504 54 164 4.0 6.0 0.00 0.00 0.00 62 1013.9
20260503005025 54 164 4.0 6.0 0.00 0.00 0.00 63 1014.1
20260503004504 54 164 4.0 7.0 0.00 0.00 0.00 62 1014.0
20260503004004 54 165 4.0 7.0 0.00 0.00 0.00 62 1014.2
20260503003525 54 166 4.0 7.0 0.00 0.00 0.00 62 1014.2
20260503003004 54 165 4.0 7.0 0.00 0.00 0.00 62 1014.1
20260503002525 54 166 4.0 7.0 0.00 0.00 0.00 62 1014.1
20260503002004 54 166 4.0 6.0 0.00 0.00 0.00 62 1014.2
20260503001504 54 166 4.0 6.0 0.00 0.00 0.00 62 1014.2
20260503001026 53 165 4.0 6.0 0.00 0.00 0.00 62 1014.5
20260503000505 53 164 4.0 6.0 0.00 0.00 0.00 63 1014.4
20260503000005 53 166 4.0 7.0 0.00 0.00 0.00 62 1014.4
20260502235504 55 171 4.0 7.0 0.00 0.00 0.00 59 1014.4
20260502235025 54 175 4.0 6.0 0.00 0.00 0.00 60 1014.4
20260502234504 54 176 4.0 7.0 0.00 0.00 0.00 60 1014.4
20260502234004 54 178 4.0 7.0 0.00 0.00 0.00 60 1014.3
20260502233504 54 180 4.0 6.0 0.00 0.00 0.00 61 1014.6
20260502233005 54 179 4.0 6.0 0.00 0.00 0.00 60 1014.5
20260502232504 54 178 4.0 6.0 0.00 0.00 0.00 60 1014.6
20260502232005 54 177 4.0 4.0 0.00 0.00 0.00 60 1014.7
20260502231504 54 176 4.0 6.0 0.00 0.00 0.00 60 1014.5
20260502231004 55 178 4.0 6.0 0.00 0.00 0.00 58 1014.8
20260502230526 55 176 4.0 6.0 0.00 0.00 0.00 58 1014.7
20260502230005 55 171 4.0 6.0 0.00 0.00 0.00 58 1014.7
20260502225504 55 169 3.0 6.0 0.00 0.00 0.00 58 1014.8
20260502225025 55 169 4.0 4.0 0.00 0.00 0.00 59 1015.1
20260502224526 54 173 4.0 6.0 0.00 0.00 0.00 58 1014.9
20260502224004 55 176 4.0 6.0 0.00 0.00 0.00 58 1014.9
20260502223525 55 176 4.0 6.0 0.00 0.00 0.00 57 1015.1
20260502223004 55 174 4.0 6.0 0.00 0.00 0.00 57 1014.9
20260502222504 55 175 4.0 6.0 0.00 0.00 0.00 57 1015.1
20260502222025 54 178 4.0 4.0 0.00 0.00 0.00 58 1015.1
20260502221505 55 178 4.0 4.0 0.00 0.00 0.00 59 1014.9
20260502221004 55 179 3.0 4.0 0.00 0.00 0.00 58 1015.3
20260502220505 54 180 3.0 4.0 0.00 0.00 0.00 60 1015.2
20260502220026 54 180 3.0 4.0 0.00 0.00 0.00 61 1015.4
20260502215504 53 181 3.0 4.0 0.00 0.00 0.00 63 1015.4
20260502215005 51 180 3.0 4.0 0.00 0.00 0.00 68 1015.3
20260502214504 50 177 2.0 3.0 0.00 0.00 0.00 70 1015.6
20260502214025 50 176 2.0 3.0 0.00 0.00 0.00 70 1015.4
20260502213504 50 170 2.0 3.0 0.00 0.00 0.00 71 1015.5
20260502213005 50 150 2.0 3.0 0.00 0.00 0.00 72 1015.5
20260502212505 50 99 1.0 3.0 0.00 0.00 0.00 72 1015.7
20260502212004 50 60 1.0 2.0 0.00 0.00 0.00 71 1015.6
20260502211504 50 59 1.0 2.0 0.00 0.00 0.00 70 1015.7
20260502211005 51 58 0.0 2.0 0.00 0.00 0.00 71 1015.6
20260502210525 51 58 0.0 2.0 0.00 0.00 0.00 70 1015.6
20260502210025 51 58 1.0 2.0 0.00 0.00 0.00 69 1015.7
20260502205504 51 52 1.0 2.0 0.00 0.00 0.00 69 1015.7
20260502205004 51 42 0.0 2.0 0.00 0.00 0.00 69 1015.6
20260502204505 52 31 0.0 1.0 0.00 0.00 0.00 69 1015.8
20260502204004 52 31 0.0 2.0 0.00 0.00 0.00 68 1015.8